Wind_Speed
7 6 6 5 5 5 3 3 3 3 3 2 2 3 5 5 5 5 4 4 4 4 4 4 4 3 3 3 2 1 1 2 2 2 2 2 2 3 3 4 4 2 6 7 7 7 8 8 8 8 8 7 7 7 8 7 6 6 5 6 5 5 6 6 6 5 6 6 5 5 5 4 4 4 3 4 4 4 4 4 4 4 5 5 5
8 8 7 6 6 5 3 3 2 3 3 3 3 4 5 5 6 5 5 5 6 5 4 5 5 5 5 4 4 2 1 2 2 2 2 1 0 2 3 4 4 2 3 6 7 6 7 8 8 9 9 8 7 7 7 7 7 7 6 5 5 5 6 6 6 6 6 6 6 6 6 5 5 4 4 4 4 4 4 5 5 5 5 6 6
10 9 8 7 7 5 4 3 2 3 3 4 4 5 5 6 6 7 7 7 7 6 5 6 6 7 6 6 5 3 2 2 2 3 4 3 2 0 1 3 4 4 1 5 6 5 7 8 8 9 8 8 8 7 7 8 8 8 7 7 7 6 6 7 7 7 7 7 7 7 7 6 6 6 6 5 5 5 5 6 6 6 7 7 7
11 10 8 7 7 6 4 3 2 3 4 4 5 6 6 7 7 7 8 8 7 6 5 5 6 7 7 7 7 5 4 4 3 5 5 5 4 1 1 2 3 4 3 3 6 7 7 7 7 7 7 8 8 8 8 8 8 8 8 8 9 8 8 7 7 8 8 8 8 8 8 8 7 7 7 7 7 7 7 7 7 7 8 8 8
12 11 9 7 7 6 6 5 3 4 5 5 6 7 7 7 7 8 9 8 7 6 6 5 6 7 8 9 8 7 5 5 5 6 4 5 5 2 2 2 3 4 5 3 6 6 5 4 5 6 7 8 8 8 8 8 8 9 9 9 9 9 8 7 7 8 8 9 9 9 9 9 9 9 9 8 9 9 9 9 9 9 9 9 9
13 12 10 8 7 7 7 6 5 6 6 7 7 7 7 7 8 8 9 8 7 7 7 6 6 7 7 8 8 6 5 4 5 5 3 3 4 3 3 3 3 3 4 5 5 3 3 4 4 4 6 8 8 8 8 8 9 9 10 10 10 9 9 8 8 9 10 10 10 10 10 10 9 9 9 9 10 10 10 10 10 10 10 10 10
14 12 10 9 8 7 6 6 7 8 8 8 8 8 8 8 8 9 8 8 9 8 8 7 8 7 5 6 7 4 3 3 3 4 3 1 3 2 2 2 2 2 3 5 5 2 3 5 5 5 6 7 7 9 9 9 10 11 11 11 10 10 11 10 10 11 12 12 12 11 11 11 11 10 10 10 10 10 11 11 11 11 11 11 11
14 13 11 9 8 7 6 6 8 9 9 9 8 8 8 8 9 9 9 9 10 9 9 8 9 8 5 5 5 4 3 2 3 4 3 1 2 2 2 1 1 1 2 3 4 3 1 2 4 5 7 7 7 9 10 11 11 11 11 11 11 12 12 11 11 12 12 12 12 12 12 12 12 12 12 11 11 11 11 12 12 12 12 12 11
14 12 11 10 9 8 7 7 9 10 9 9 9 9 9 9 9 10 10 10 10 10 10 10 11 10 7 5 5 5 3 1 2 4 3 1 3 3 5 5 4 2 2 3 3 3 2 2 2 3 5 6 7 8 9 10 10 11 12 12 12 12 12 12 13 13 13 13 12 12 12 12 13 13 13 13 13 12 12 13 13 13 13 13 13
13 12 11 11 10 9 9 9 10 11 10 9 9 9 9 9 10 10 10 11 11 10 11 11 11 11 8 5 6 6 3 2 3 3 2 2 1 2 3 5 6 5 5 3 3 2 1 2 2 2 3 4 6 7 7 8 9 10 11 11 12 13 13 14 15 14 13 13 13 13 13 13 13 13 13 13 13 13 13 14 14 14 14 14 14
14 13 12 11 11 10 10 10 11 11 11 10 10 10 10 10 10 11 11 11 11 10 11 12 12 12 10 8 8 8 5 5 4 3 2 2 2 1 2 4 5 6 5 4 3 2 1 2 3 3 4 4 5 6 6 7 8 7 8 10 11 13 14 15 15 14 13 14 15 14 14 14 14 14 14 14 13 13 14 16 16 15 15 15 14
14 13 13 12 11 11 10 10 11 12 11 11 10 9 10 11 11 11 11 11 10 10 11 12 13 12 11 10 10 9 7 6 5 4 3 3 3 1 2 3 5 6 5 5 5 3 2 1 2 3 3 3 4 4 5 6 7 6 7 9 9 11 12 13 13 13 12 14 15 14 14 13 14 13 13 14 13 14 14 15 16 16 16 15 15
15 14 13 13 12 11 10 10 11 12 12 11 10 10 11 12 12 13 12 11 10 11 11 10 9 6 6 8 10 9 6 5 6 6 5 5 5 2 1 2 4 5 6 6 5 4 3 2 2 3 3 3 3 3 4 4 5 5 6 7 7 8 9 9 10 10 11 12 13 13 13 13 13 13 13 14 14 15 15 15 16 16 16 16 15
16 15 14 13 13 12 11 10 11 11 12 11 10 11 12 12 13 13 12 11 11 11 10 7 5 3 6 8 9 9 7 5 4 3 5 6 5 3 1 1 2 5 7 7 6 5 4 3 4 4 5 5 4 3 3 3 3 3 4 5 5 5 5 5 5 5 7 8 9 11 12 12 12 13 14 14 14 15 16 16 16 16 16 16 16
17 16 15 14 13 12 11 11 11 12 12 11 11 11 12 12 13 12 12 11 11 11 8 6 4 5 7 7 8 8 8 7 4 4 5 6 5 4 2 1 1 4 6 8 7 7 7 8 8 8 7 6 5 4 3 2 2 3 3 4 4 4 4 4 4 4 5 5 5 7 9 10 10 12 13 13 13 14 15 15 15 15 15 15 16
18 17 16 15 14 12 12 12 12 13 12 12 12 12 12 12 12 12 12 12 11 10 8 6 5 6 7 7 7 7 6 6 6 5 5 5 5 5 3 2 0 3 5 7 8 8 9 10 11 11 8 6 5 5 4 4 3 3 4 4 4 4 4 5 6 6 6 6 6 7 8 9 10 11 11 12 13 13 14 13 13 14 14 14 15
19 18 17 15 14 13 12 12 13 13 13 13 13 13 13 13 13 12 11 12 11 9 9 8 6 6 7 6 5 5 5 6 6 6 6 5 6 6 5 3 1 2 4 6 7 7 8 9 10 11 9 7 7 5 4 4 3 3 4 4 4 4 4 5 5 6 6 7 7 8 8 9 9 10 11 11 12 13 14 14 13 14 13 13 13
20 19 17 16 15 14 13 13 13 13 13 13 14 14 14 13 13 12 12 12 11 10 10 9 8 8 8 8 6 5 5 6 7 6 7 7 8 8 6 5 3 3 4 4 4 4 5 6 9 10 9 8 9 8 7 6 5 5 5 5 5 5 4 4 4 4 5 6 7 7 8 9 9 10 10 10 11 11 12 13 13 14 14 14 14
20 20 19 18 17 16 15 14 14 13 13 14 15 15 14 13 13 13 12 12 12 12 11 10 10 10 10 10 9 7 5 6 7 7 7 9 10 10 8 7 5 4 4 3 2 2 2 4 6 8 8 7 8 9 9 8 8 7 7 6 7 7 7 6 6 6 6 6 6 6 6 7 8 9 9 10 10 10 11 11 11 12 13 13 14
21 21 20 19 18 17 16 15 15 14 14 15 16 15 14 14 14 13 13 13 13 12 11 11 12 11 11 11 11 10 9 8 7 8 8 8 11 12 11 9 8 6 6 4 2 1 0 1 3 5 6 6 6 7 8 8 8 7 7 7 7 7 8 8 7 7 7 6 6 6 6 6 6 7 8 8 9 9 10 10 11 11 12 12 13
22 22 21 20 19 18 18 17 16 15 15 15 16 16 15 15 15 14 13 13 13 13 12 12 12 11 11 11 12 11 11 10 9 8 9 9 10 12 12 11 10 9 8 6 4 3 2 2 1 3 5 5 4 4 6 7 6 6 6 6 6 6 6 6 6 6 6 6 6 6 6 6 6 6 6 7 8 8 9 10 11 11 12 12 13
23 23 22 21 20 20 20 19 18 17 16 15 15 16 16 15 15 14 13 13 14 13 12 12 12 12 12 12 11 11 11 12 11 9 10 10 10 11 12 12 11 9 8 8 6 5 4 4 3 1 3 3 3 3 4 5 4 4 4 4 4 4 5 5 5 6 6 6 6 7 7 7 8 7 7 7 8 9 9 10 11 11 12 12 12
24 24 23 22 22 22 21 21 19 18 17 16 15 15 15 16 15 14 14 14 14 14 13 13 13 13 14 13 11 10 10 11 11 11 10 11 11 11 11 12 11 10 9 9 8 7 7 6 5 3 2 1 1 0 2 2 2 1 1 2 3 4 4 5 5 5 6 7 7 7 8 9 9 10 10 10 11 11 12 12 12 12 12 12 12
26 26 25 24 23 23 23 22 21 20 19 17 15 15 16 16 15 15 15 15 15 14 14 13 13 13 13 13 12 10 10 10 11 11 11 11 11 11 11 11 11 10 10 10 9 9 9 8 6 6 5 4 3 2 2 2 2 2 2 2 3 4 5 5 5 5 6 7 7 8 8 9 10 11 12 12 13 14 14 14 13 13 13 13 13
28 28 27 25 25 24 24 23 22 21 19 17 15 15 16 16 15 15 15 15 15 15 13 12 12 12 12 13 13 11 10 10 12 12 12 12 11 11 10 10 10 9 9 9 10 9 9 9 8 8 8 7 6 6 6 6 5 5 5 5 5 5 6 6 7 7 7 7 8 8 9 9 10 11 12 13 14 15 15 15 14 14 14 15 15
28 27 26 25 25 25 24 23 22 20 19 17 17 17 17 16 16 15 15 15 16 15 13 11 11 12 12 14 14 12 11 12 13 14 14 13 12 11 10 9 9 9 9 9 9 10 10 10 10 10 10 10 10 10 10 9 8 7 8 8 7 7 7 8 8 9 8 8 8 8 9 9 10 11 12 13 14 14 15 14 14 15 15 16 16
27 27 26 26 25 24 24 23 21 20 19 18 18 18 18 17 16 16 16 16 16 14 12 12 12 12 13 14 14 14 14 13 14 14 15 14 12 11 10 9 9 10 10 10 10 11 11 11 11 11 11 12 13 13 12 11 10 9 10 10 10 9 9 10 10 10 11 10 11 10 10 11 11 12 12 13 14 14 15 15 15 16 16 16 17
27 27 27 26 26 25 24 23 21 21 20 19 20 19 18 18 17 17 17 16 15 13 12 12 12 12 13 14 15 15 15 16 15 14 15 15 14 13 12 11 11 11 12 12 12 11 10 10 10 11 11 12 13 12 11 11 11 11 11 11 10 10 10 11 11 12 12 13 13 13 14 14 14 14 14 14 14 15 15 16 17 17 18 18 18
28 28 27 27 27 25 25 23 22 21 20 21 21 20 19 19 18 17 17 17 15 13 12 12 12 12 13 14 15 16 16 17 16 15 15 15 15 15 14 13 12 12 13 14 14 12 11 11 11 12 12 12 12 11 11 11 11 11 11 10 10 11 12 12 13 13 14 14 14 15 16 16 17 17 16 16 15 16 16 16 16 17 18 19 19
29 28 28 28 27 26 26 24 23 22 21 22 21 20 20 20 19 18 18 17 16 14 13 13 12 13 14 14 15 16 17 18 17 16 16 16 16 16 15 14 13 14 14 15 16 15 13 14 14 14 13 11 11 11 10 11 11 11 10 10 11 12 13 14 15 15 16 16 16 16 17 17 18 18 18 18 18 18 18 18 18 18 18 18 19
31 31 29 29 28 27 26 25 24 23 23 23 22 21 22 21 20 20 19 19 17 16 15 14 13 14 15 15 16 16 17 18 18 18 18 18 18 17 17 16 15 15 15 16 18 18 17 18 18 16 14 12 11 11 10 10 10 10 11 11 12 12 14 16 17 18 18 18 18 18 18 17 17 17 19 20 20 20 20 20 20 19 19 18 18
33 33 32 30 29 28 27 26 25 25 24 24 24 23 23 23 22 22 22 20 19 18 17 17 16 16 16 16 17 17 17 18 19 20 20 19 19 18 18 17 16 16 16 17 19 21 20 19 18 16 15 14 13 11 10 10 10 11 12 12 13 14 16 18 18 18 19 19 19 19 19 18 17 17 18 19 20 21 21 20 20 20 20 19 19
33 34 33 32 31 29 28 27 26 25 25 25 25 24 24 25 24 24 23 22 21 19 19 19 18 18 18 18 18 18 18 19 19 20 21 20 20 19 18 17 16 16 17 17 19 21 20 18 16 14 13 14 14 12 11 11 11 12 12 13 13 15 18 19 19 19 20 21 20 20 19 19 18 17 17 18 19 19 19 19 19 20 20 20 20
33 34 34 33 33 31 29 28 27 26 26 26 27 26 26 26 26 25 25 24 23 21 21 20 20 19 19 19 19 19 19 19 19 20 21 21 21 20 19 18 16 16 16 16 17 19 20 18 15 14 13 13 14 13 12 12 12 12 13 13 15 17 20 21 21 22 23 23 22 19 18 17 17 17 17 17 18 18 18 18 18 18 19 20 21
33 33 34 34 34 33 31 30 29 28 27 28 28 29 28 27 27 26 26 26 25 23 22 21 21 21 21 21 20 20 20 20 20 20 21 22 22 21 20 18 17 16 15 16 17 18 19 18 15 13 12 12 12 13 13 13 13 14 15 16 18 20 22 23 23 24 24 24 22 19 18 17 18 18 17 17 17 18 19 19 19 19 19 21 22
35 34 34 34 34 34 33 32 31 29 29 29 29 30 30 29 28 28 27 27 26 24 23 22 21 22 22 23 22 21 21 21 21 21 22 23 22 22 21 20 19 17 16 17 17 17 18 18 16 14 13 12 12 13 14 14 14 14 16 18 21 22 23 24 24 25 24 23 22 20 19 19 19 19 19 18 18 19 20 21 21 21 21 21 22
36 35 35 35 35 35 35 34 33 31 30 30 30 31 31 30 29 29 28 28 28 26 24 23 22 22 23 24 23 23 22 22 22 22 22 23 23 22 22 21 20 20 18 17 16 15 17 18 18 16 15 14 14 14 14 15 15 16 18 21 23 24 25 25 25 25 24 23 21 21 21 20 20 20 19 19 20 20 21 22 22 22 22 23 24
37 37 36 36 37 36 36 35 34 32 31 31 31 31 31 30 30 29 29 29 29 27 26 24 24 23 23 24 24 24 25 24 23 23 23 23 23 22 22 22 21 20 18 16 15 15 16 17 18 17 16 16 16 16 15 16 17 19 21 24 25 25 26 27 27 26 24 23 22 22 23 23 22 21 20 19 19 20 21 21 22 23 23 24 25
38 38 38 38 38 37 37 36 35 34 32 32 31 31 31 31 30 29 29 30 29 28 27 26 25 25 24 24 24 25 26 26 25 24 23 22 22 21 21 21 20 19 18 16 16 16 17 17 18 17 16 16 17 17 18 18 19 20 22 25 27 27 27 27 28 26 24 23 23 23 23 24 24 23 22 22 22 22 22 22 22 23 24 24 25
38 39 39 39 38 39 39 38 37 35 34 33 32 31 31 31 31 30 30 31 30 29 29 28 27 27 26 25 25 25 26 26 26 25 24 23 22 21 20 20 19 19 18 17 17 18 18 18 18 17 17 18 18 18 19 20 20 21 22 26 29 29 29 28 27 26 25 23 23 24 24 24 24 24 25 26 26 26 25 23 22 22 22 23 23
39 39 40 40 39 40 40 40 39 37 35 34 33 32 32 32 32 32 31 31 31 30 30 30 29 28 27 26 26 25 25 25 26 26 25 24 23 22 21 20 20 20 19 18 18 18 18 19 19 19 19 20 19 19 20 21 21 22 24 27 29 29 28 27 27 26 25 25 24 25 25 25 26 26 27 28 28 27 26 24 22 22 22 22 22
39 40 40 41 41 42 42 41 41 39 37 36 34 33 33 33 32 32 31 31 31 31 31 31 30 29 27 27 26 26 25 25 25 27 27 26 25 23 22 21 21 20 18 18 18 18 18 18 19 19 20 21 20 19 20 21 22 24 25 26 27 26 25 27 28 26 25 25 25 25 25 25 28 29 29 28 26 25 24 23 23 23 23 23 22
41 41 41 42 43 43 43 43 42 41 39 37 35 34 33 33 33 32 32 31 31 32 32 32 31 29 28 27 27 26 26 24 25 27 28 27 26 24 23 22 21 19 18 18 18 17 17 18 19 19 20 21 21 21 21 22 23 24 25 25 25 25 25 27 28 26 25 25 26 28 27 26 28 29 27 26 25 24 25 24 24 24 24 23 22
42 42 43 44 44 44 44 44 43 42 40 38 36 35 34 33 33 32 32 31 31 32 32 32 31 29 28 28 28 29 28 25 24 27 29 29 27 25 24 23 21 20 19 18 17 17 17 18 19 20 20 20 21 21 21 22 23 24 24 24 24 24 25 26 26 26 25 25 27 29 29 27 26 27 26 25 25 25 25 25 24 24 23 23 22
43 44 44 45 45 46 46 45 44 42 41 38 37 36 35 33 32 32 31 31 30 30 31 31 30 28 28 31 31 29 28 26 24 26 29 28 27 25 24 23 22 21 19 17 16 17 18 19 20 20 19 20 21 21 20 21 23 23 22 23 23 24 24 24 25 26 26 26 26 28 28 26 24 25 26 26 25 25 25 24 24 24 24 24 24
44 45 45 45 46 47 47 46 44 43 41 39 38 37 35 33 31 31 31 30 29 29 29 29 28 27 29 32 31 27 27 26 24 25 26 26 27 26 24 24 23 21 19 17 17 18 19 19 19 19 18 19 21 21 20 21 21 20 21 22 22 22 23 24 25 26 25 24 24 25 26 26 25 26 28 27 25 25 25 25 25 25 24 23 22
46 46 46 46 46 47 47 47 45 44 41 40 39 38 36 33 30 30 30 29 28 28 27 27 27 27 29 31 30 28 27 25 24 25 25 24 25 25 24 24 23 21 19 18 18 19 18 17 17 17 18 20 21 21 20 19 19 20 21 22 22 22 23 24 23 23 22 21 21 23 25 26 25 26 28 26 25 25 25 25 24 21 19 17 16
47 47 47 47 47 48 47 47 46 45 43 42 40 38 35 32 30 30 30 29 28 28 26 25 26 27 29 30 30 29 27 24 24 24 22 21 22 23 23 23 22 21 20 20 19 19 18 16 15 16 18 19 19 18 18 18 20 21 21 21 21 21 20 20 20 19 18 18 19 21 25 26 24 24 25 24 24 25 24 22 19 15 12 12 13
48 48 48 48 48 48 47 47 47 46 45 43 41 38 35 33 31 30 30 29 28 27 24 24 26 28 28 29 29 29 27 25 23 22 21 19 20 21 21 21 21 20 20 20 19 18 17 15 15 16 18 17 16 16 17 19 20 20 19 19 18 17 16 16 17 17 16 17 19 21 24 25 23 21 23 24 23 23 22 19 15 12 12 13 14
49 48 48 48 48 48 48 48 47 46 46 45 42 38 36 33 31 30 28 28 27 26 24 25 27 28 28 28 29 28 27 25 22 21 21 19 19 19 20 20 20 19 19 19 18 16 14 14 15 16 16 15 15 16 18 18 18 18 17 15 13 13 13 14 15 16 17 19 20 21 23 23 21 20 22 23 24 23 20 17 16 15 14 15 16
49 48 49 49 49 49 49 48 46 45 46 46 43 40 37 33 30 28 27 27 27 25 24 26 27 27 28 28 27 26 25 23 22 22 21 20 19 19 19 19 19 18 18 18 18 15 13 13 15 15 14 14 15 16 16 16 15 15 13 11 10 10 11 12 14 16 20 22 21 20 21 22 22 20 20 22 25 25 22 20 19 19 19 20 20
Wind_Direction
193 190 201 196 187 192 198 201 202 210 215 227 239 242 249 255 278 303 315 308 296 297 299 281 247 225 216 214 209 203 275 327 331 321 330 355 17 42 39 360 339 259 215 208 212 209 202 200 202 204 203 204 204 208 207 200 203 206 210 214 212 215 215 216 223 225 221 217 222 225 223 224 228 231 227 220 220 227 231 233 238 247 259 271 284
197 197 204 199 197 201 206 216 224 232 239 252 260 272 268 265 283 301 304 297 294 292 286 267 237 226 232 232 230 225 283 323 337 304 286 284 308 56 49 25 7 323 221 205 216 215 206 204 206 208 205 204 202 210 213 205 207 208 210 217 217 222 221 221 224 226 227 227 231 234 237 239 243 251 252 247 239 237 238 241 246 252 262 272 285
201 204 206 200 202 210 223 230 237 247 252 259 271 284 281 280 288 298 300 296 300 293 268 253 232 225 238 249 249 249 284 304 332 313 293 257 227 137 50 23 8 349 283 205 213 219 215 209 209 212 210 208 205 208 212 211 214 211 207 212 215 216 219 225 228 229 230 232 234 237 242 243 246 252 256 259 260 256 249 247 252 258 265 272 280
207 210 210 207 211 219 230 233 239 250 258 265 270 283 287 289 288 295 300 294 296 288 263 247 230 229 243 253 254 257 273 288 302 311 301 253 232 229 249 345 352 345 350 222 211 211 214 211 215 222 218 214 211 211 213 216 220 218 214 215 218 215 215 219 225 230 232 235 238 241 244 246 246 246 248 253 256 258 256 255 256 258 263 268 272
213 217 218 217 223 229 236 240 251 260 266 270 272 285 291 290 287 290 294 290 286 279 273 254 228 235 251 256 257 260 268 286 301 318 317 245 233 238 249 290 320 336 354 303 239 223 213 208 217 229 229 226 222 219 219 222 227 229 226 224 225 224 223 225 228 235 236 237 241 245 248 250 251 249 248 250 251 254 254 256 258 260 264 267 270
217 222 224 228 237 242 249 253 262 267 270 277 281 288 289 285 282 283 287 289 283 274 274 260 231 233 248 254 253 256 264 280 304 328 351 241 238 253 262 287 307 324 333 320 313 276 229 216 212 223 234 234 233 231 227 228 234 239 239 235 235 237 239 240 242 246 247 246 247 248 249 251 253 255 254 255 255 256 254 253 254 258 264 267 271
221 226 230 237 244 248 258 263 268 269 270 278 282 286 285 281 279 279 285 291 287 276 270 257 235 228 240 252 245 238 240 259 310 332 352 256 233 250 268 275 276 291 300 320 355 2 226 221 213 214 228 231 232 235 233 233 232 235 239 239 240 241 242 245 248 251 252 252 253 252 254 255 255 257 258 260 261 263 264 262 259 259 263 265 269
224 229 232 238 244 252 261 265 268 268 270 276 282 285 282 280 281 281 286 291 290 281 272 260 240 231 240 250 234 205 204 240 306 321 340 91 152 115 72 67 221 243 300 331 360 8 300 238 224 219 228 233 230 231 234 236 234 232 237 239 241 243 244 247 249 252 253 254 254 255 258 259 258 256 254 257 260 264 268 270 269 268 267 268 269
224 228 232 238 246 255 259 264 267 267 270 274 280 283 278 280 283 283 285 290 291 283 274 264 251 244 243 233 220 205 196 240 290 300 315 117 113 78 63 59 59 64 51 24 8 360 345 315 284 246 242 246 242 238 237 242 243 239 240 242 245 249 250 251 250 253 257 259 260 261 261 259 259 259 257 258 258 260 263 267 271 272 272 271 269
224 228 234 240 247 254 256 261 264 265 269 273 278 279 278 281 284 286 287 291 291 284 277 270 262 255 241 223 230 227 218 237 253 287 284 188 161 39 54 48 45 45 46 44 30 15 327 296 293 273 263 264 260 256 250 253 255 250 249 250 252 255 255 255 255 255 260 265 266 266 265 263 263 264 262 261 261 263 265 267 268 268 269 270 270
226 230 238 243 247 251 255 260 262 264 267 271 277 279 279 283 284 288 289 291 291 283 280 275 269 262 247 240 248 243 237 241 237 269 270 212 243 324 47 32 29 26 24 27 20 18 318 270 266 271 276 276 272 269 266 267 269 263 260 260 263 264 262 262 262 262 265 268 268 265 264 267 268 269 266 264 264 267 269 270 270 267 267 268 269
228 233 239 244 246 249 253 260 262 263 266 271 278 279 278 280 284 288 288 289 287 283 282 278 276 271 255 242 243 241 241 246 247 260 253 228 239 240 53 23 18 15 15 21 16 14 16 323 294 298 296 298 294 290 287 281 279 276 269 268 270 269 266 266 268 270 271 270 269 268 267 267 269 270 270 270 270 270 270 271 272 270 269 268 268
230 234 239 244 245 246 249 255 260 263 266 270 271 270 271 277 285 290 289 287 287 289 287 282 285 274 231 215 220 230 238 252 268 264 236 218 227 226 64 11 13 23 29 29 23 19 17 19 16 6 5 1 347 331 319 306 298 293 284 279 275 272 271 272 277 280 275 270 269 271 271 269 271 273 274 275 276 276 274 274 274 273 271 270 270
233 235 239 243 243 244 246 251 259 262 263 263 263 265 272 281 288 290 287 284 288 292 286 281 283 211 189 196 208 225 238 253 274 242 204 209 226 231 236 325 18 45 46 36 32 34 37 46 47 38 36 34 31 20 352 329 317 309 309 304 292 287 285 285 294 288 276 275 277 277 276 274 275 278 279 279 280 279 278 277 276 275 273 272 272
233 236 238 240 241 243 246 250 256 259 261 260 260 266 275 284 289 286 281 280 286 287 274 264 254 203 196 205 216 231 243 246 244 196 191 210 218 214 216 256 25 65 59 46 45 57 68 70 61 50 45 40 36 33 21 354 327 320 327 329 324 322 314 312 321 307 291 295 290 281 280 280 280 279 280 282 283 281 281 282 281 279 278 276 274
232 235 237 238 240 243 246 249 252 256 259 259 260 265 274 282 284 279 274 279 286 277 254 241 234 214 209 219 230 239 242 234 217 196 200 207 198 194 206 222 139 79 72 61 61 70 75 70 57 47 45 41 29 16 11 2 346 336 331 336 343 340 327 318 316 311 308 308 299 291 289 289 287 285 284 283 282 281 282 284 284 284 284 282 279
232 234 236 237 240 243 246 250 253 255 258 259 260 263 269 276 275 271 269 278 281 261 239 233 230 221 218 223 231 238 240 224 203 200 212 211 192 192 211 217 180 118 96 82 76 76 69 59 48 43 45 48 42 28 17 11 5 1 358 3 4 354 340 328 321 317 315 313 308 304 300 297 294 293 291 287 284 283 284 285 283 283 283 282 280
232 233 235 237 240 241 245 250 254 257 260 260 259 261 266 272 272 268 269 277 269 243 232 233 233 229 226 227 232 241 245 228 214 214 217 213 201 198 212 216 195 161 135 105 86 77 63 52 46 43 47 53 55 52 48 46 46 45 44 45 39 25 11 358 353 348 336 327 319 310 302 296 293 292 290 290 290 289 289 288 286 283 281 280 279
233 233 234 236 238 239 243 248 254 257 260 259 257 260 264 269 269 266 270 273 257 236 230 234 237 236 234 235 240 246 248 238 234 235 226 215 208 207 214 217 210 193 168 144 104 84 61 50 47 44 48 54 61 66 65 64 66 68 69 64 56 49 43 41 41 34 17 358 337 320 309 299 294 292 291 292 292 292 292 292 291 288 286 285 283
234 234 234 235 235 236 240 245 250 254 257 256 255 258 260 263 265 264 269 266 247 232 231 237 241 242 244 246 247 248 248 249 251 248 243 231 215 212 217 219 219 213 196 184 177 170 181 30 42 45 49 53 61 71 71 70 71 72 71 65 61 57 52 49 45 39 28 13 356 337 322 310 303 299 298 299 298 299 297 296 295 293 291 289 287
234 235 235 235 235 236 239 244 248 251 256 257 255 255 256 259 262 264 269 262 242 231 230 237 242 244 251 254 253 252 250 251 255 246 243 242 229 221 223 225 227 227 214 208 218 220 229 266 348 40 47 53 63 71 73 75 74 70 67 64 61 55 49 43 34 25 13 360 349 337 327 318 310 303 301 301 302 304 303 302 299 296 293 291 289
234 236 236 236 236 237 240 244 247 250 255 257 255 254 255 258 260 263 265 254 240 234 234 237 240 241 250 257 256 256 254 254 258 253 244 241 241 238 235 234 240 247 235 226 233 232 231 255 278 357 38 52 71 83 86 89 84 73 64 57 50 40 31 24 17 9 359 347 334 323 316 311 307 303 302 302 303 304 303 302 300 297 294 291 289
236 238 239 239 239 239 241 244 246 249 251 254 253 253 254 256 257 260 259 248 239 238 239 238 238 239 245 252 256 257 257 258 259 262 257 246 244 249 248 246 252 258 249 240 241 237 235 247 266 286 322 355 359 118 120 117 113 96 47 17 8 3 360 358 358 357 352 345 333 319 308 302 300 299 299 301 304 305 304 302 298 296 293 289 286
239 240 241 241 240 240 241 242 243 245 247 250 251 250 251 251 252 256 255 247 238 236 237 236 236 238 243 250 254 255 256 257 256 258 259 253 249 252 253 253 257 257 250 245 245 246 246 248 255 271 288 304 308 292 278 273 265 262 278 296 304 313 322 325 328 335 339 339 334 327 316 306 299 296 296 298 300 302 303 301 298 295 292 289 286
240 240 240 240 240 239 240 241 242 244 246 247 247 246 246 247 248 250 249 244 239 236 236 235 234 237 244 251 254 253 253 254 255 254 255 254 253 254 254 253 255 252 244 243 247 256 263 262 260 267 279 292 300 300 297 296 290 278 273 276 277 285 296 305 310 314 320 325 326 326 323 316 308 301 299 298 299 300 299 298 296 293 291 289 286
242 242 242 240 238 237 238 241 242 245 246 245 244 242 242 244 245 245 243 241 237 236 237 235 235 236 242 249 254 254 252 253 255 253 252 253 254 257 258 255 253 248 245 247 252 261 270 273 273 274 281 291 298 301 300 300 298 288 279 278 277 275 280 287 294 298 300 303 306 309 311 311 309 305 302 300 301 301 300 297 293 289 286 285 284
244 245 245 242 237 235 237 240 243 245 245 243 241 239 239 241 241 239 237 235 233 233 235 236 237 240 244 250 255 254 252 255 258 254 250 250 251 256 260 259 257 255 257 260 264 270 275 279 282 284 288 293 296 297 296 296 296 293 289 287 284 281 280 282 286 290 293 293 293 292 292 294 295 295 296 296 297 297 297 296 294 290 287 283 282
243 245 246 243 238 236 238 241 244 245 244 242 239 236 237 238 237 234 230 228 228 230 233 234 237 242 246 249 253 254 254 257 260 256 250 249 249 251 256 259 262 267 271 274 277 282 287 288 290 291 292 294 295 295 293 291 291 293 295 295 294 294 295 297 299 301 302 301 299 296 294 292 289 288 288 290 292 293 292 291 290 290 289 287 285
240 242 244 243 240 238 240 243 246 245 242 240 237 234 236 236 234 231 228 225 226 230 233 234 236 240 243 245 249 253 255 256 258 257 251 249 248 250 255 260 265 272 279 284 288 290 291 294 298 299 297 296 295 293 291 289 290 291 293 296 301 305 308 310 311 310 307 304 303 301 299 295 291 287 285 286 288 289 289 289 287 286 285 286 286
237 239 241 242 241 240 241 243 246 246 242 238 235 233 234 235 232 230 228 225 225 229 233 233 234 236 239 242 246 251 254 255 256 255 252 250 249 250 255 260 265 271 277 285 290 291 293 298 303 305 302 296 291 289 288 287 287 286 289 298 306 310 313 314 312 309 305 302 299 297 296 295 291 287 285 285 285 285 287 288 288 286 283 281 281
235 236 238 240 240 240 241 242 244 245 241 237 234 232 233 234 232 230 228 226 224 227 231 233 234 236 238 240 244 250 254 256 255 253 252 251 251 252 254 259 264 269 273 279 284 288 295 300 303 304 301 293 287 284 281 278 278 281 290 301 306 309 312 312 311 309 308 306 303 298 295 293 291 286 282 281 281 282 283 285 286 285 282 279 276
235 235 236 237 239 239 239 240 242 243 240 236 234 233 233 234 233 232 231 229 226 226 229 232 233 235 237 239 243 248 252 255 256 255 254 252 253 254 257 260 263 266 270 274 280 287 294 297 299 300 296 290 286 283 276 270 272 281 292 298 301 305 310 312 312 312 312 312 310 305 299 295 293 289 282 278 277 277 278 280 283 283 281 279 275
235 235 235 235 237 238 238 239 241 241 240 238 236 235 234 235 234 233 234 233 229 227 229 232 233 235 237 237 240 245 249 252 255 256 256 255 256 258 261 263 264 267 271 275 280 287 292 293 295 297 292 285 282 280 275 271 275 285 293 298 302 308 312 314 314 315 316 316 314 308 300 295 294 293 289 284 279 277 277 278 279 280 279 276 273
236 235 235 234 235 236 237 238 239 240 240 238 237 236 234 234 234 233 234 234 230 228 230 232 233 236 238 238 239 243 247 250 253 256 257 258 259 262 265 268 270 273 275 278 282 287 291 292 293 294 288 282 279 277 274 274 281 289 295 301 305 310 314 315 316 317 318 318 316 310 301 293 291 293 292 287 283 282 283 282 280 277 274 272 270
238 235 234 234 234 234 236 237 238 238 239 238 237 236 235 235 234 234 235 234 233 231 232 233 234 236 239 239 239 241 245 248 251 255 257 258 260 263 266 271 275 277 277 280 285 288 291 291 291 290 288 285 281 277 276 279 284 292 297 302 305 308 312 314 314 315 316 316 315 311 303 297 296 297 294 288 284 283 283 283 282 277 273 270 268
240 235 233 232 233 234 235 236 236 237 238 237 235 235 235 235 235 236 237 237 236 235 235 237 236 238 240 240 240 241 245 247 249 253 256 258 260 263 267 271 274 277 280 282 286 289 289 290 291 292 291 287 283 280 280 282 287 294 300 303 303 305 308 311 311 313 314 314 312 308 305 302 301 301 299 296 292 288 286 285 285 283 279 275 272
241 237 233 231 232 233 234 235 236 236 236 236 235 235 235 236 237 238 239 239 238 238 238 240 240 241 241 242 242 243 245 246 248 251 254 257 260 262 265 269 271 274 277 278 282 286 288 289 290 292 291 288 286 283 282 286 291 296 298 298 299 303 307 310 311 313 314 313 312 309 306 304 303 303 301 300 297 294 291 290 288 286 284 283 282
242 238 233 231 231 232 234 235 235 235 235 235 235 235 237 237 238 239 239 239 239 239 240 241 242 243 244 244 244 244 245 246 247 251 254 256 258 260 264 267 268 270 272 273 277 284 288 289 288 288 289 290 290 290 291 294 296 297 298 297 299 304 309 310 312 314 314 313 312 311 309 308 307 306 305 302 300 296 294 292 290 288 287 287 286
241 238 233 230 230 232 234 235 235 234 234 235 235 236 238 238 239 239 239 240 240 239 240 241 242 245 246 247 247 246 246 247 249 253 255 256 257 259 263 266 266 266 269 271 276 282 288 288 285 285 287 290 292 294 297 299 300 302 303 301 302 306 310 311 312 313 312 309 308 308 308 306 305 305 306 305 305 303 298 295 293 290 288 287 287
240 237 233 230 230 231 233 235 235 234 234 235 235 236 237 238 239 239 239 241 241 241 241 241 242 245 247 249 251 251 250 249 250 253 255 256 257 259 261 263 263 264 266 271 276 281 284 283 280 280 283 287 290 295 299 301 303 304 303 302 303 308 310 310 312 313 311 309 308 307 306 303 301 300 301 303 305 305 303 300 297 291 288 288 290
239 237 234 232 230 231 233 234 235 235 234 234 234 235 236 237 238 239 240 241 243 243 243 243 244 245 247 250 253 254 255 253 252 253 256 256 256 258 260 260 261 263 266 270 274 277 278 277 276 277 280 283 289 296 300 302 302 302 301 303 305 307 308 308 310 311 311 311 310 308 306 304 302 300 300 301 302 303 304 304 301 297 293 293 295
239 237 235 233 231 232 233 234 235 235 234 234 233 234 235 237 239 240 241 242 243 245 246 246 246 246 248 251 254 257 259 258 255 253 255 257 256 257 259 260 261 262 263 266 272 273 272 271 272 275 278 281 287 293 296 298 300 301 302 304 305 305 306 307 308 309 309 310 309 306 305 305 305 305 305 304 304 304 304 305 304 301 299 298 298
239 237 235 233 232 232 234 235 236 236 235 234 234 234 235 236 238 240 242 243 244 246 247 248 249 249 250 252 255 258 261 262 260 256 254 255 256 256 258 260 261 260 260 264 269 269 268 268 269 273 278 282 285 289 293 296 298 300 302 303 303 304 306 306 306 308 309 310 309 307 307 308 308 307 307 307 306 306 306 305 303 300 298 299 299
238 237 235 233 232 233 234 235 236 237 236 235 235 236 236 236 238 240 242 244 244 246 247 249 250 251 252 254 257 260 263 265 264 261 257 255 256 256 257 259 260 259 259 262 265 263 262 263 267 272 278 281 284 289 294 296 297 298 301 302 302 303 303 303 304 307 310 310 309 308 308 311 311 308 307 308 307 307 306 305 302 298 297 298 297
237 237 236 234 233 234 235 235 236 237 237 237 237 237 238 238 239 240 242 244 246 247 248 249 251 253 255 256 256 257 259 258 255 257 257 255 255 255 255 256 257 257 256 257 259 258 257 260 265 272 277 280 285 292 295 295 296 298 299 301 301 301 301 302 304 307 311 311 309 307 308 312 312 307 306 308 308 307 306 304 302 299 299 298 297
237 238 237 236 236 235 235 235 236 237 238 238 238 238 239 239 239 241 243 245 246 248 249 250 252 253 255 256 255 252 252 251 248 251 255 255 254 254 253 253 255 255 254 253 254 255 256 260 265 270 276 281 287 291 293 294 296 300 301 302 302 301 301 304 305 308 311 312 310 309 309 310 310 307 306 308 307 305 304 304 303 304 303 301 298
237 238 238 238 237 237 236 236 237 238 239 240 240 240 241 240 239 241 243 244 246 248 249 250 252 253 253 255 256 256 256 254 248 247 251 254 254 252 250 251 253 253 251 251 251 253 255 257 263 270 277 282 286 290 295 299 301 303 304 303 303 303 303 304 305 308 310 310 310 309 308 308 309 307 306 307 306 304 305 308 310 311 308 302 297
238 239 239 239 239 239 238 238 238 238 239 240 241 241 241 241 240 240 242 243 245 246 247 248 250 251 252 253 255 256 258 256 249 243 244 247 249 248 247 249 251 250 250 251 253 256 255 254 262 273 278 282 287 293 299 302 302 303 303 303 304 303 302 303 304 307 309 309 311 311 308 308 311 308 306 309 310 309 312 316 318 316 305 295 293
237 238 239 240 240 240 240 239 239 238 239 241 241 242 242 240 239 239 240 241 243 244 245 246 248 249 250 252 254 256 256 255 248 240 237 240 244 244 244 246 247 246 247 250 253 255 255 256 264 273 277 282 289 296 300 301 303 305 304 303 303 303 302 303 305 308 311 313 315 314 310 310 314 312 311 313 313 312 316 321 322 317 306 298 297
237 238 239 240 240 241 241 241 240 240 240 241 241 241 241 240 239 239 239 240 241 242 242 244 246 248 250 252 255 258 259 255 245 236 234 238 243 243 241 242 242 243 248 250 249 250 254 258 265 271 277 284 291 296 301 305 308 307 304 303 305 304 303 304 307 311 313 316 319 316 312 312 316 316 316 315 313 313 318 322 322 318 312 307 305
238 239 239 239 240 241 242 242 242 242 242 243 242 241 240 239 238 238 238 238 239 238 239 243 245 247 250 251 253 253 253 250 243 236 235 238 239 237 235 236 239 245 251 248 243 245 254 260 265 271 278 286 294 300 306 310 309 306 306 306 306 304 305 309 312 313 312 316 321 318 311 312 314 315 317 316 314 315 319 320 318 316 314 312 310
Height
1580 1581 1582 1583 1584 1584 1585 1585 1585 1585 1586 1586 1586 1587 1587 1587 1587 1588 1588 1588 1588 1588 1588 1588 1588 1588 1588 1588 1588 1588 1588 1588 1588 1588 1588 1587 1587 1586 1586 1585 1585 1585 1586 1586 1587 1588 1588 1589 1590 1590 1591 1591 1592 1593 1594 1595 1596 1597 1598 1598 1598 1598 1599 1599 1599 1600 1600 1601 1601 1601 1602 1602 1602 1602 1602 1602 1603 1603 1603 1604 1604 1605 1605 1605 1605
1580 1581 1582 1583 1584 1584 1585 1585 1586 1586 1586 1586 1586 1587 1587 1587 1588 1588 1588 1588 1588 1588 1588 1588 1589 1589 1588 1588 1588 1588 1589 1588 1588 1588 1588 1588 1587 1587 1586 1586 1585 1585 1586 1587 1587 1587 1588 1589 1589 1590 1590 1591 1592 1593 1595 1596 1596 1597 1598 1598 1598 1598 1598 1599 1599 1600 1600 1601 1601 1601 1602 1602 1603 1603 1603 1603 1603 1603 1603 1604 1604 1604 1605 1605 1605
1580 1581 1582 1583 1584 1584 1585 1585 1586 1586 1586 1586 1586 1587 1587 1587 1587 1587 1588 1588 1588 1588 1588 1588 1588 1589 1589 1589 1589 1589 1589 1589 1588 1588 1588 1588 1588 1587 1587 1586 1586 1585 1586 1586 1587 1587 1588 1588 1589 1590 1590 1591 1592 1593 1594 1595 1596 1596 1597 1597 1597 1597 1597 1598 1598 1599 1600 1601 1601 1601 1601 1602 1602 1603 1603 1603 1603 1603 1603 1604 1604 1604 1604 1604 1604
1580 1581 1582 1583 1584 1584 1585 1585 1585 1586 1586 1586 1586 1586 1587 1587 1587 1587 1587 1587 1587 1588 1588 1588 1588 1589 1589 1589 1589 1589 1589 1589 1589 1588 1588 1588 1588 1587 1587 1587 1586 1586 1586 1586 1586 1586 1588 1588 1589 1590 1591 1592 1592 1593 1594 1595 1596 1596 1596 1597 1597 1597 1597 1597 1598 1599 1599 1600 1600 1601 1601 1601 1602 1602 1602 1603 1603 1603 1603 1603 1603 1603 1603 1603 1603
1580 1581 1582 1582 1583 1584 1584 1585 1585 1585 1586 1586 1586 1586 1587 1587 1587 1587 1587 1587 1587 1587 1588 1588 1588 1588 1588 1589 1589 1589 1589 1589 1589 1588 1588 1587 1587 1587 1587 1587 1587 1586 1586 1586 1586 1586 1587 1589 1589 1590 1591 1592 1592 1593 1593 1594 1595 1596 1596 1597 1598 1598 1598 1597 1597 1598 1599 1600 1600 1601 1601 1601 1602 1602 1602 1602 1602 1602 1602 1602 1603 1603 1603 1603 1603
1579 1580 1581 1582 1583 1583 1584 1584 1585 1585 1585 1586 1586 1586 1587 1587 1587 1587 1587 1587 1587 1587 1587 1587 1588 1588 1588 1588 1588 1589 1589 1589 1589 1588 1588 1587 1588 1588 1588 1587 1587 1587 1586 1586 1587 1587 1588 1588 1589 1590 1591 1592 1592 1593 1593 1594 1595 1596 1596 1597 1598 1599 1599 1598 1598 1598 1599 1599 1600 1600 1600 1601 1601 1601 1601 1601 1601 1601 1602 1602 1602 1602 1603 1603 1603
1579 1580 1581 1582 1582 1583 1583 1584 1584 1584 1585 1585 1586 1586 1586 1586 1586 1587 1587 1587 1587 1587 1587 1587 1588 1588 1588 1588 1588 1588 1589 1589 1589 1589 1588 1588 1588 1588 1588 1588 1587 1587 1587 1587 1587 1588 1588 1588 1589 1590 1590 1591 1592 1592 1592 1593 1594 1594 1595 1596 1596 1597 1598 1597 1597 1598 1598 1599 1599 1600 1600 1600 1600 1600 1600 1601 1601 1601 1601 1601 1602 1602 1602 1602 1602
1579 1580 1581 1581 1582 1582 1583 1583 1583 1584 1584 1585 1585 1586 1586 1586 1586 1586 1586 1586 1586 1586 1586 1586 1587 1588 1588 1587 1588 1588 1588 1588 1589 1589 1588 1588 1588 1588 1588 1588 1587 1587 1587 1587 1587 1588 1588 1588 1589 1589 1590 1590 1591 1592 1592 1593 1593 1593 1594 1595 1595 1596 1596 1596 1597 1597 1598 1598 1599 1599 1599 1599 1599 1599 1599 1599 1600 1600 1600 1601 1601 1601 1601 1601 1601
1578 1579 1580 1581 1581 1582 1582 1583 1583 1583 1584 1584 1584 1585 1585 1585 1585 1585 1585 1585 1585 1585 1585 1585 1586 1587 1587 1587 1587 1588 1588 1588 1589 1589 1589 1588 1589 1589 1589 1588 1588 1588 1587 1587 1587 1588 1588 1588 1589 1589 1590 1590 1590 1591 1592 1592 1593 1593 1593 1594 1595 1595 1595 1596 1596 1596 1597 1597 1598 1598 1598 1598 1598 1598 1598 1598 1598 1599 1599 1600 1600 1600 1600 1600 1600
1578 1579 1579 1580 1581 1581 1582 1582 1582 1583 1583 1583 1584 1584 1584 1584 1584 1584 1584 1584 1584 1584 1584 1585 1585 1586 1587 1587 1587 1587 1587 1588 1589 1589 1589 1589 1589 1589 1589 1589 1588 1588 1588 1588 1588 1587 1588 1588 1589 1589 1590 1590 1590 1591 1591 1592 1592 1593 1594 1594 1595 1595 1595 1595 1595 1596 1596 1596 1596 1596 1596 1596 1597 1597 1597 1597 1597 1597 1598 1598 1599 1599 1599 1599 1599
1577 1578 1579 1579 1580 1581 1581 1582 1582 1582 1582 1582 1583 1583 1583 1583 1584 1584 1583 1583 1583 1583 1584 1584 1584 1585 1586 1586 1586 1587 1587 1588 1588 1589 1589 1589 1589 1589 1589 1589 1589 1589 1588 1588 1588 1588 1588 1588 1589 1589 1590 1590 1590 1590 1591 1591 1592 1592 1593 1594 1594 1594 1594 1594 1595 1595 1594 1594 1594 1594 1595 1595 1595 1596 1596 1596 1596 1596 1597 1597 1597 1598 1598 1598 1598
1576 1577 1578 1578 1579 1580 1580 1581 1581 1581 1581 1582 1582 1583 1583 1583 1583 1583 1582 1583 1583 1583 1583 1583 1583 1583 1584 1585 1586 1586 1587 1587 1588 1589 1589 1589 1589 1589 1590 1590 1589 1589 1589 1589 1589 1588 1588 1588 1588 1589 1589 1590 1590 1590 1590 1591 1591 1592 1592 1593 1593 1593 1593 1593 1593 1593 1593 1593 1593 1593 1593 1593 1593 1594 1594 1595 1595 1595 1595 1595 1596 1596 1596 1597 1597
1575 1576 1577 1578 1578 1579 1580 1580 1580 1581 1581 1581 1582 1582 1582 1582 1582 1582 1582 1582 1582 1582 1582 1582 1582 1583 1583 1584 1585 1586 1586 1587 1588 1588 1589 1589 1589 1590 1590 1590 1590 1590 1590 1589 1589 1589 1589 1589 1589 1589 1589 1590 1590 1590 1590 1591 1591 1591 1592 1592 1592 1592 1592 1592 1592 1592 1592 1591 1591 1591 1591 1592 1592 1592 1593 1593 1593 1593 1593 1593 1594 1594 1594 1595 1595
1574 1575 1576 1577 1577 1578 1579 1579 1580 1580 1581 1581 1581 1581 1581 1582 1581 1581 1582 1582 1582 1582 1582 1582 1582 1583 1583 1584 1585 1586 1586 1587 1587 1588 1588 1589 1589 1590 1590 1590 1590 1590 1590 1590 1590 1590 1589 1589 1590 1590 1589 1590 1590 1590 1590 1591 1591 1591 1591 1591 1591 1591 1591 1591 1591 1591 1591 1590 1590 1590 1590 1590 1591 1591 1591 1592 1592 1592 1592 1592 1592 1592 1592 1593 1593
1573 1574 1574 1575 1576 1577 1578 1578 1579 1580 1580 1581 1581 1581 1581 1581 1581 1581 1581 1582 1582 1582 1582 1582 1582 1583 1584 1584 1585 1586 1586 1586 1587 1587 1588 1589 1589 1590 1590 1591 1591 1591 1591 1590 1590 1590 1590 1590 1590 1590 1590 1590 1590 1590 1590 1590 1591 1590 1590 1590 1590 1590 1590 1590 1590 1591 1591 1590 1590 1590 1590 1590 1590 1591 1591 1591 1591 1592 1591 1591 1590 1590 1590 1591 1591
1571 1572 1573 1574 1575 1576 1577 1577 1578 1579 1579 1580 1580 1580 1581 1581 1581 1581 1581 1581 1582 1582 1582 1582 1582 1583 1584 1584 1585 1585 1586 1586 1587 1587 1588 1588 1589 1590 1591 1591 1591 1592 1592 1591 1591 1591 1591 1591 1591 1591 1591 1591 1590 1590 1590 1590 1590 1590 1590 1590 1589 1589 1589 1589 1589 1589 1590 1590 1590 1590 1590 1590 1590 1590 1590 1590 1590 1591 1590 1590 1590 1589 1589 1589 1589
1569 1571 1572 1573 1574 1575 1576 1576 1577 1578 1579 1579 1580 1580 1580 1580 1580 1580 1581 1581 1582 1582 1582 1582 1582 1583 1583 1584 1585 1585 1586 1586 1587 1587 1588 1588 1589 1590 1591 1591 1592 1592 1592 1592 1592 1592 1592 1592 1592 1592 1592 1591 1591 1591 1590 1590 1590 1590 1590 1590 1589 1589 1589 1589 1589 1589 1589 1589 1589 1589 1589 1589 1589 1590 1590 1590 1590 1590 1589 1589 1589 1589 1589 1588 1588
1568 1569 1570 1571 1573 1574 1575 1575 1576 1577 1578 1578 1579 1579 1579 1579 1580 1580 1580 1581 1581 1582 1582 1582 1582 1582 1583 1584 1584 1585 1585 1586 1586 1587 1587 1588 1589 1590 1590 1591 1592 1592 1592 1592 1592 1592 1593 1593 1593 1593 1593 1592 1592 1591 1591 1591 1591 1591 1591 1591 1590 1590 1590 1589 1589 1589 1589 1589 1589 1589 1589 1589 1589 1589 1589 1589 1589 1589 1588 1588 1588 1588 1588 1587 1587
1566 1568 1569 1570 1571 1572 1573 1574 1575 1576 1577 1577 1578 1578 1578 1579 1579 1579 1580 1580 1581 1581 1581 1582 1582 1582 1583 1583 1584 1585 1585 1586 1586 1586 1587 1588 1588 1589 1590 1591 1591 1592 1592 1592 1592 1593 1593 1593 1593 1593 1593 1593 1593 1592 1592 1592 1592 1592 1592 1592 1591 1591 1591 1590 1590 1590 1590 1590 1590 1590 1590 1590 1589 1589 1589 1589 1588 1588 1588 1587 1587 1587 1586 1586 1586
1565 1566 1567 1568 1570 1571 1572 1573 1574 1575 1575 1576 1577 1577 1577 1578 1578 1578 1579 1579 1580 1581 1581 1581 1582 1582 1582 1583 1584 1584 1585 1585 1585 1586 1586 1587 1588 1589 1589 1590 1591 1591 1592 1592 1592 1592 1593 1593 1593 1594 1594 1593 1593 1593 1593 1593 1593 1592 1592 1592 1592 1592 1591 1591 1591 1591 1591 1591 1591 1590 1590 1590 1589 1589 1588 1588 1588 1587 1587 1587 1586 1586 1585 1585 1584
1563 1564 1566 1567 1568 1570 1571 1572 1573 1574 1574 1575 1576 1576 1576 1577 1577 1578 1578 1579 1579 1580 1580 1581 1581 1582 1582 1582 1583 1583 1584 1584 1585 1585 1586 1586 1587 1588 1588 1589 1590 1590 1591 1591 1592 1592 1592 1593 1593 1593 1593 1593 1593 1593 1593 1593 1593 1593 1593 1592 1592 1592 1592 1592 1591 1591 1591 1591 1591 1590 1590 1589 1589 1589 1588 1588 1587 1587 1586 1586 1585 1585 1584 1584 1583
1561 1563 1564 1565 1567 1568 1569 1570 1571 1572 1573 1573 1574 1575 1575 1576 1576 1577 1577 1578 1578 1579 1579 1580 1581 1581 1581 1582 1582 1583 1583 1583 1584 1584 1585 1585 1586 1586 1587 1588 1589 1589 1590 1590 1591 1591 1592 1592 1592 1593 1593 1593 1593 1593 1593 1593 1593 1593 1593 1592 1592 1592 1592 1592 1591 1591 1591 1590 1590 1590 1589 1589 1588 1588 1587 1587 1586 1586 1585 1585 1584 1584 1583 1583 1582
1560 1561 1562 1563 1565 1566 1567 1569 1570 1570 1571 1572 1573 1573 1574 1575 1575 1576 1576 1577 1578 1578 1578 1579 1579 1580 1580 1581 1582 1582 1582 1583 1583 1584 1584 1585 1585 1585 1586 1586 1587 1588 1588 1589 1590 1590 1590 1591 1591 1592 1592 1592 1592 1592 1592 1592 1592 1592 1592 1592 1592 1592 1591 1591 1591 1590 1590 1589 1589 1589 1588 1588 1587 1587 1586 1586 1585 1585 1584 1584 1583 1583 1582 1582 1582
1557 1558 1560 1561 1563 1564 1565 1567 1568 1568 1570 1571 1571 1572 1573 1573 1574 1574 1575 1576 1576 1577 1577 1578 1578 1579 1579 1580 1581 1581 1581 1582 1582 1583 1583 1584 1584 1584 1585 1585 1586 1586 1587 1587 1588 1589 1589 1590 1590 1591 1591 1591 1591 1592 1592 1592 1592 1592 1592 1592 1591 1591 1591 1590 1590 1589 1589 1589 1588 1588 1587 1587 1586 1586 1585 1585 1584 1583 1583 1582 1582 1581 1581 1581 1581
1555 1556 1557 1559 1561 1562 1563 1564 1566 1567 1568 1569 1570 1571 1571 1572 1572 1573 1574 1574 1575 1576 1576 1576 1577 1577 1578 1579 1580 1581 1581 1581 1581 1582 1582 1583 1583 1583 1583 1584 1584 1585 1585 1586 1587 1587 1588 1588 1589 1589 1590 1590 1591 1591 1591 1591 1591 1591 1591 1591 1590 1590 1590 1589 1589 1589 1588 1588 1587 1587 1586 1585 1585 1584 1584 1583 1582 1582 1581 1580 1580 1580 1579 1579 1579
1552 1554 1555 1557 1559 1560 1562 1563 1564 1565 1566 1567 1568 1569 1570 1570 1571 1572 1572 1573 1574 1574 1575 1575 1576 1576 1577 1578 1579 1580 1580 1580 1580 1581 1581 1582 1582 1582 1583 1583 1583 1584 1584 1585 1586 1586 1587 1587 1588 1588 1589 1589 1589 1590 1590 1590 1590 1590 1590 1590 1589 1589 1589 1588 1588 1588 1587 1587 1586 1585 1585 1584 1584 1583 1582 1582 1581 1580 1579 1579 1578 1578 1578 1577 1577
1550 1552 1554 1555 1557 1558 1560 1561 1562 1563 1564 1566 1567 1567 1568 1569 1569 1570 1571 1572 1572 1572 1573 1574 1574 1575 1576 1576 1577 1578 1579 1579 1580 1580 1580 1581 1582 1582 1582 1582 1583 1583 1583 1584 1584 1585 1586 1586 1587 1587 1587 1587 1588 1588 1588 1589 1589 1589 1589 1588 1588 1588 1588 1587 1587 1586 1586 1585 1585 1584 1583 1583 1582 1582 1581 1580 1580 1579 1578 1577 1577 1576 1576 1575 1575
1548 1550 1552 1553 1555 1556 1558 1559 1561 1562 1562 1564 1565 1565 1566 1567 1568 1568 1569 1570 1570 1571 1571 1572 1573 1574 1574 1575 1576 1577 1578 1578 1579 1579 1580 1580 1581 1581 1582 1582 1582 1582 1583 1583 1583 1584 1585 1585 1585 1586 1586 1586 1586 1586 1587 1587 1587 1587 1587 1587 1587 1587 1586 1586 1585 1585 1584 1583 1583 1582 1582 1581 1580 1580 1579 1579 1578 1577 1577 1576 1575 1575 1574 1573 1573
1545 1547 1549 1551 1553 1554 1556 1557 1559 1560 1561 1562 1563 1563 1564 1565 1566 1567 1567 1568 1568 1569 1570 1571 1572 1573 1573 1574 1574 1575 1576 1577 1577 1578 1579 1580 1580 1581 1581 1581 1582 1582 1582 1582 1582 1583 1583 1583 1584 1584 1584 1584 1584 1584 1585 1585 1585 1586 1585 1585 1585 1585 1584 1584 1583 1583 1582 1581 1581 1580 1579 1579 1578 1578 1577 1577 1576 1575 1575 1574 1573 1573 1572 1571 1571
1542 1544 1547 1548 1550 1552 1553 1555 1556 1557 1558 1559 1560 1561 1562 1563 1564 1565 1566 1566 1566 1567 1568 1569 1570 1571 1572 1572 1573 1574 1575 1575 1576 1577 1578 1579 1579 1580 1580 1581 1581 1582 1582 1581 1581 1581 1582 1582 1582 1583 1583 1583 1583 1583 1583 1584 1584 1584 1584 1584 1583 1583 1583 1582 1582 1581 1580 1580 1579 1578 1577 1577 1576 1575 1575 1574 1574 1573 1572 1572 1571 1571 1570 1569 1569
1539 1541 1543 1545 1548 1549 1551 1552 1553 1555 1556 1557 1558 1559 1560 1561 1562 1563 1564 1564 1564 1565 1567 1568 1569 1569 1570 1571 1572 1572 1573 1574 1574 1575 1576 1577 1578 1579 1579 1580 1580 1581 1581 1581 1580 1579 1580 1581 1581 1581 1581 1581 1581 1582 1582 1582 1582 1582 1582 1582 1582 1582 1581 1581 1580 1579 1579 1578 1577 1576 1575 1574 1574 1573 1572 1572 1571 1570 1570 1569 1569 1568 1567 1567 1566
1536 1538 1540 1542 1545 1546 1548 1549 1551 1552 1553 1554 1555 1556 1557 1558 1559 1560 1562 1562 1562 1563 1565 1565 1566 1567 1568 1569 1570 1571 1572 1572 1573 1573 1574 1575 1576 1577 1578 1579 1579 1580 1580 1580 1579 1578 1579 1580 1580 1580 1580 1580 1580 1580 1581 1581 1581 1581 1581 1581 1581 1580 1580 1579 1579 1578 1577 1576 1575 1574 1573 1572 1571 1570 1570 1569 1569 1568 1567 1567 1566 1565 1565 1564 1564
1532 1534 1537 1539 1541 1543 1545 1546 1548 1549 1550 1551 1553 1554 1555 1556 1557 1558 1559 1560 1560 1561 1562 1563 1564 1565 1566 1567 1568 1569 1570 1570 1571 1572 1572 1574 1575 1576 1576 1577 1578 1578 1579 1579 1578 1578 1578 1579 1579 1579 1579 1579 1579 1579 1580 1580 1580 1580 1580 1580 1579 1579 1578 1578 1577 1577 1576 1575 1573 1572 1571 1570 1569 1568 1568 1567 1566 1565 1565 1564 1564 1563 1562 1562 1561
1528 1531 1533 1536 1538 1540 1541 1543 1544 1546 1547 1548 1550 1551 1552 1553 1555 1556 1557 1558 1558 1559 1560 1561 1562 1563 1564 1565 1566 1567 1568 1568 1569 1570 1571 1572 1573 1573 1574 1575 1576 1577 1577 1577 1577 1577 1576 1577 1577 1578 1578 1578 1578 1578 1578 1578 1579 1579 1579 1578 1578 1577 1577 1576 1575 1575 1574 1572 1571 1570 1569 1568 1567 1567 1566 1565 1564 1563 1562 1562 1561 1560 1560 1559 1559
1525 1527 1529 1532 1534 1536 1538 1539 1540 1542 1543 1545 1547 1548 1549 1551 1552 1553 1554 1555 1556 1557 1557 1559 1560 1561 1562 1563 1564 1565 1566 1567 1567 1568 1569 1570 1571 1571 1572 1573 1574 1575 1575 1576 1576 1575 1575 1575 1576 1576 1576 1577 1577 1577 1577 1577 1577 1577 1576 1576 1575 1575 1574 1574 1573 1572 1571 1570 1569 1568 1567 1566 1565 1564 1563 1562 1561 1560 1559 1559 1558 1557 1557 1556 1556
1521 1523 1526 1528 1530 1532 1534 1535 1536 1538 1539 1541 1543 1545 1546 1548 1549 1551 1552 1553 1554 1555 1556 1557 1558 1559 1560 1561 1562 1563 1564 1565 1565 1566 1567 1568 1569 1569 1570 1571 1572 1572 1573 1573 1573 1573 1573 1573 1574 1574 1575 1575 1575 1576 1576 1575 1575 1575 1574 1574 1573 1572 1572 1571 1570 1569 1568 1567 1567 1566 1565 1564 1563 1562 1561 1560 1559 1558 1556 1556 1555 1554 1553 1553 1552
1517 1519 1522 1524 1526 1528 1529 1530 1532 1533 1535 1538 1539 1541 1543 1545 1547 1548 1549 1551 1552 1553 1554 1555 1556 1557 1558 1558 1560 1561 1562 1562 1563 1564 1565 1566 1567 1568 1568 1569 1570 1570 1571 1571 1572 1572 1572 1571 1572 1573 1573 1574 1574 1574 1574 1573 1573 1573 1572 1571 1570 1569 1569 1568 1568 1567 1566 1565 1564 1563 1562 1561 1560 1559 1558 1557 1556 1555 1554 1553 1552 1551 1550 1549 1548
1513 1515 1517 1520 1522 1523 1525 1526 1528 1529 1531 1534 1536 1538 1540 1542 1544 1545 1547 1548 1549 1550 1551 1552 1553 1554 1555 1556 1557 1558 1559 1560 1561 1562 1563 1564 1565 1566 1566 1567 1568 1569 1569 1570 1570 1570 1570 1570 1570 1571 1571 1571 1571 1572 1572 1572 1571 1570 1569 1568 1568 1568 1567 1566 1565 1565 1564 1562 1562 1561 1559 1558 1557 1556 1555 1554 1553 1552 1551 1550 1549 1548 1547 1546 1544
1508 1510 1512 1515 1517 1519 1521 1522 1524 1525 1527 1530 1532 1534 1536 1538 1540 1542 1543 1545 1546 1547 1548 1549 1550 1551 1552 1553 1554 1555 1556 1558 1559 1560 1561 1563 1563 1564 1565 1565 1566 1566 1567 1568 1568 1568 1568 1568 1569 1569 1569 1569 1569 1570 1570 1569 1569 1568 1567 1566 1565 1565 1565 1563 1562 1562 1561 1560 1559 1558 1557 1556 1554 1553 1552 1551 1550 1549 1548 1547 1546 1545 1544 1543 1541
1503 1505 1507 1510 1513 1515 1516 1518 1520 1522 1524 1525 1528 1530 1532 1534 1536 1538 1539 1541 1542 1544 1545 1546 1547 1548 1549 1550 1551 1553 1554 1556 1557 1559 1560 1561 1562 1562 1563 1563 1564 1564 1565 1566 1566 1566 1566 1566 1567 1567 1567 1567 1567 1567 1567 1567 1566 1566 1565 1564 1563 1562 1562 1560 1559 1558 1557 1557 1556 1556 1555 1554 1552 1551 1550 1549 1548 1546 1544 1543 1542 1541 1541 1539 1539
1498 1501 1503 1506 1508 1510 1511 1513 1516 1517 1519 1521 1523 1525 1528 1530 1532 1533 1535 1537 1539 1540 1541 1543 1544 1545 1546 1547 1549 1550 1552 1554 1556 1557 1558 1559 1559 1560 1561 1561 1562 1562 1563 1564 1564 1564 1564 1564 1564 1565 1565 1564 1564 1565 1565 1564 1564 1563 1563 1562 1560 1559 1559 1557 1557 1556 1554 1553 1552 1552 1552 1551 1549 1549 1547 1546 1545 1543 1541 1540 1539 1538 1537 1537 1536
1494 1496 1499 1501 1502 1504 1506 1508 1511 1512 1514 1516 1518 1521 1523 1525 1527 1529 1531 1533 1535 1536 1538 1539 1541 1542 1543 1545 1547 1548 1550 1552 1554 1555 1555 1556 1557 1558 1559 1559 1560 1560 1560 1561 1561 1561 1562 1562 1562 1562 1562 1562 1563 1563 1563 1562 1562 1561 1560 1559 1558 1557 1556 1554 1554 1554 1553 1550 1549 1548 1549 1549 1546 1545 1544 1543 1541 1540 1538 1537 1536 1535 1534 1533 1532
1489 1491 1494 1495 1496 1498 1501 1503 1505 1507 1509 1511 1513 1516 1518 1521 1523 1525 1527 1529 1531 1532 1534 1536 1537 1539 1541 1543 1545 1547 1548 1550 1552 1552 1553 1553 1554 1555 1556 1556 1557 1557 1557 1558 1558 1558 1559 1559 1559 1560 1560 1560 1560 1560 1560 1560 1560 1559 1558 1557 1555 1554 1554 1552 1551 1551 1550 1548 1546 1544 1545 1546 1544 1541 1540 1539 1538 1536 1535 1534 1533 1532 1530 1530 1529
1484 1486 1488 1489 1491 1493 1495 1498 1500 1502 1504 1506 1509 1511 1513 1516 1519 1521 1523 1525 1527 1528 1530 1532 1534 1536 1538 1541 1543 1545 1547 1548 1549 1549 1549 1550 1551 1552 1553 1554 1554 1554 1554 1555 1555 1555 1556 1556 1556 1557 1557 1558 1558 1558 1558 1558 1557 1556 1555 1554 1554 1552 1552 1550 1549 1548 1547 1546 1544 1541 1541 1542 1541 1538 1537 1536 1535 1534 1533 1531 1530 1529 1528 1527 1526
1479 1481 1482 1484 1486 1488 1490 1492 1495 1497 1499 1502 1504 1506 1509 1512 1515 1517 1519 1521 1523 1525 1526 1528 1530 1533 1535 1537 1539 1542 1542 1542 1543 1544 1544 1546 1547 1549 1550 1550 1551 1551 1551 1551 1552 1552 1553 1553 1554 1554 1555 1555 1555 1555 1555 1554 1554 1554 1553 1552 1552 1550 1549 1548 1547 1545 1545 1543 1541 1539 1537 1538 1538 1535 1534 1533 1532 1531 1530 1528 1527 1526 1524 1523 1522
1474 1474 1476 1479 1481 1483 1485 1487 1490 1492 1495 1497 1499 1502 1505 1508 1510 1513 1515 1517 1519 1521 1523 1524 1527 1529 1531 1532 1533 1534 1535 1535 1537 1538 1539 1541 1543 1545 1546 1547 1547 1548 1548 1549 1549 1549 1550 1550 1551 1552 1552 1553 1553 1552 1552 1551 1551 1551 1550 1550 1549 1548 1547 1545 1544 1543 1542 1541 1539 1536 1535 1535 1535 1532 1531 1530 1529 1528 1526 1525 1523 1522 1520 1519 1518
1468 1470 1472 1474 1476 1478 1480 1483 1486 1488 1490 1493 1495 1498 1501 1503 1507 1509 1511 1513 1515 1516 1518 1520 1522 1525 1526 1526 1527 1529 1530 1532 1533 1534 1535 1537 1539 1540 1542 1543 1544 1545 1545 1545 1546 1546 1547 1548 1549 1549 1550 1550 1550 1549 1549 1548 1548 1548 1547 1547 1546 1545 1544 1542 1542 1541 1540 1539 1537 1535 1533 1532 1532 1530 1527 1527 1526 1524 1523 1521 1519 1518 1517 1515 1514
1463 1465 1467 1469 1471 1473 1476 1479 1481 1483 1485 1488 1491 1494 1497 1500 1503 1505 1507 1509 1510 1512 1514 1516 1518 1519 1520 1521 1523 1525 1526 1528 1529 1530 1531 1532 1534 1536 1538 1539 1540 1541 1542 1543 1543 1544 1544 1545 1546 1547 1547 1547 1547 1546 1546 1546 1546 1545 1545 1544 1543 1542 1541 1540 1539 1539 1538 1537 1536 1534 1531 1529 1529 1527 1524 1523 1522 1520 1519 1518 1516 1515 1514 1513 1512
1458 1460 1462 1464 1467 1469 1471 1474 1476 1478 1480 1483 1486 1489 1492 1496 1499 1501 1503 1505 1506 1508 1510 1511 1512 1514 1515 1517 1518 1520 1522 1524 1526 1527 1527 1528 1530 1532 1534 1535 1537 1538 1539 1540 1540 1541 1542 1542 1543 1544 1545 1544 1544 1543 1543 1543 1543 1542 1541 1541 1540 1539 1538 1538 1537 1536 1536 1535 1534 1532 1529 1527 1526 1524 1521 1520 1519 1517 1516 1515 1514 1513 1512 1511 1510
1453 1455 1458 1460 1462 1464 1466 1468 1470 1473 1475 1478 1481 1485 1488 1492 1495 1497 1499 1500 1501 1503 1505 1507 1507 1509 1511 1513 1515 1516 1518 1520 1522 1523 1524 1525 1526 1528 1530 1532 1533 1535 1536 1537 1538 1538 1539 1540 1541 1542 1542 1542 1541 1541 1541 1541 1540 1539 1539 1538 1538 1537 1537 1536 1535 1534 1533 1532 1532 1530 1527 1524 1523 1522 1519 1517 1515 1514 1514 1513 1512 1511 1510 1509 1508
1449 1451 1454 1455 1457 1458 1461 1463 1466 1469 1471 1473 1476 1480 1484 1488 1491 1493 1495 1496 1497 1499 1501 1502 1503 1505 1507 1510 1512 1513 1515 1517 1519 1520 1521 1522 1523 1524 1527 1528 1530 1531 1533 1534 1535 1535 1536 1538 1539 1539 1539 1539 1539 1539 1538 1538 1537 1537 1536 1536 1536 1535 1535 1534 1533 1532 1530 1530 1529 1527 1525 1522 1521 1520 1518 1515 1512 1510 1510 1510 1509 1508 1508 1507 1505